[[{"header":{"parameterUnit":"m.s-1","parameterCategory":1,"la1":30.2991,"la2":30.254,"lo1":-89.0895,"lo2":-89.0444,"dy":0.0017,"dx":0.0017,"nx":28,"ny":28,"refTime":"2024-03-05T09:00:00:Z","depth":0,"parameterNumber":2,"parameterNumberName":"U-component_of_WINDS"},"data":[0,0,0,0,0,0,0,0,0,0,0,0,0,0,0,0,0,0,0,0,0,0,0,0,0,0,0,0,0,0,0,0,0,0,0,0,0,0,0,0,0,0,0,0,0,0,0,0,0,0,0,0,0,0,0,0,0,0,-0.1691,-0.1689,0,-0.1561,-0.156,-0.1558,-0.1485,-0.1484,-0.1484,-0.1484,-0.1344,-0.1341,-0.1338,0,0,0,0,0,0,0,0,0,0,0,0,0,-0.1868,-0.1865,-0.1691,-0.1689,-0.1688,-0.1561,-0.156,-0.1558,-0.1485,-0.1484,-0.1484,-0.1484,-0.1346,-0.1342,-0.1337,0,0,0,0,0,0,0,0,0,0,0,0,0,-0.177,-0.1864,-0.1691,-0.1636,-0.163,-0.1562,-0.156,-0.1557,-0.1485,-0.1484,-0.1484,-0.1484,-0.1347,-0.1342,-0.1337,-0.1312,0,0,-0.1321,-0.1318,0,0,0,0,0,0,0,0,-0.1776,-0.1764,-0.1646,-0.164,-0.1633,-0.1539,-0.1571,-0.1475,-0.1485,-0.154,-0.1484,-0.1483,-0.1409,-0.1399,-0.1375,-0.1305,-0.1299,-0.132,-0.1317,-0.1315,-0.1313,0,0,0,0,0,0,0,-0.1783,-0.1769,-0.1639,-0.1644,-0.1636,-0.1615,-0.1601,-0.1552,-0.1478,-0.1535,-0.1529,-0.1515,-0.1405,-0.138,-0.1371,-0.1297,-0.132,-0.1316,-0.1313,-0.1311,-0.1198,-0.1198,0,0,0,0,0,0,-0.1799,-0.1775,-0.1644,-0.1636,-0.1705,-0.1613,-0.1597,-0.1569,-0.1478,-0.1464,-0.1516,-0.1512,-0.1389,-0.1377,-0.1366,-0.1329,-0.1315,-0.131,-0.1307,-0.1197,-0.1198,-0.1198,0,0,0,0,0,0,-0.1803,-0.1788,-0.1649,-0.1704,-0.1684,-0.161,-0.158,-0.1567,-0.1542,-0.1464,-0.1449,-0.1504,-0.1388,-0.1373,-0.1326,-0.1323,-0.1308,-0.1303,-0.1197,-0.1197,-0.1198,-0.1256,0,0,0,0,0,0,-0.1809,-0.179,-0.1782,-0.1704,-0.1682,-0.1613,-0.158,-0.1565,-0.1534,-0.1528,-0.1449,-0.1435,-0.1387,-0.1334,-0.132,-0.1316,-0.1299,-0.1197,-0.1197,-0.1198,-0.1254,-0.1259,-0.1262,0,0,0,0,0,-0.1815,-0.1802,-0.1781,-0.1766,-0.167,-0.1613,-0.16,-0.1547,-0.1534,-0.1523,-0.1473,-0.1438,-0.1326,-0.133,-0.1314,-0.1308,-0.1197,-0.1197,-0.1198,-0.1253,-0.1258,-0.1262,0,0,0,0,0,0,-0.1879,-0.1791,-0.1767,-0.1729,-0.168,-0.1601,-0.1586,-0.1554,-0.1505,-0.1502,-0.1435,-0.1418,-0.1376,-0.1337,-0.1343,-0.1277,-0.1257,-0.1255,-0.1305,-0.1309,-0.1313,-0.1323,-0.1294,0,0,0,0,0,-0.1889,-0.1853,-0.1777,-0.175,-0.1727,-0.1661,-0.1634,-0.1598,-0.1542,-0.152,-0.1466,-0.1413,-0.1365,-0.1335,-0.1287,-0.1248,-0.1229,-0.1236,-0.124,-0.1244,-0.1242,-0.1217,-0.1218,-0.1199,-0.1199,-0.1199,0,0,-0.1909,-0.1856,-0.1837,-0.1762,-0.1719,-0.1681,-0.1644,-0.1605,-0.1575,-0.1514,-0.1466,-0.1424,-0.1359,-0.1316,-0.1294,-0.1282,-0.1243,-0.1244,-0.1248,-0.1243,-0.1217,-0.1219,-0.1221,-0.1199,-0.1199,-0.1199,0,0,-0.1925,-0.1883,-0.1855,-0.1813,-0.175,-0.1706,-0.1699,-0.1625,-0.1596,-0.1548,-0.1501,-0.1462,-0.1382,-0.1338,-0.1304,-0.1303,-0.1268,-0.1289,-0.1309,-0.1286,-0.1287,-0.1288,-0.1286,-0.1286,-0.1287,-0.1287,-0.1287,0,-0.1957,-0.1899,-0.1845,-0.1809,-0.1776,-0.1721,-0.1691,-0.1653,-0.1576,-0.1553,-0.1541,-0.1439,-0.1391,-0.1336,-0.1336,-0.1311,-0.13,-0.1297,-0.1292,-0.1292,-0.1292,-0.1289,-0.1289,-0.129,-0.129,-0.129,-0.1289,0,-0.1941,-0.1901,-0.1887,-0.1816,-0.1782,-0.1749,-0.1687,-0.1659,-0.1624,-0.1581,-0.1531,-0.1472,-0.1411,-0.1395,-0.136,-0.1334,-0.1328,-0.1305,-0.1283,-0.1298,-0.1294,-0.1293,-0.1294,-0.1293,-0.1293,-0.1292,0,0,-0.1993,-0.1893,-0.1889,-0.1855,-0.1781,-0.1748,-0.1711,-0.1653,-0.1629,-0.1578,-0.1544,-0.1477,-0.1455,-0.1418,-0.1377,-0.1357,-0.1357,-0.1335,-0.1333,-0.1341,-0.1322,-0.134,-0.134,-0.1334,-0.1334,-0.1334,-0.1327,0,-0.1998,-0.1933,-0.1882,-0.1835,-0.1797,-0.1744,-0.1711,-0.1661,-0.1619,-0.1579,-0.1531,-0.1485,-0.146,-0.1437,-0.1414,-0.1362,-0.1353,-0.1362,-0.13,-0.1298,-0.1317,-0.1338,-0.1356,-0.1353,-0.1326,-0.1325,-0.1325,0,-0.1994,-0.1947,-0.1897,-0.1825,-0.1807,-0.178,-0.1722,-0.1684,-0.1625,-0.1595,-0.1554,-0.1512,-0.1469,-0.1452,-0.139,-0.1398,-0.1369,-0.134,-0.1338,-0.1329,-0.1312,-0.1328,-0.1351,-0.1351,-0.1323,-0.1323,-0.1323,0,-0.2036,-0.1959,-0.1919,-0.1892,-0.1808,-0.179,-0.1754,-0.1694,-0.1662,-0.161,-0.1588,-0.1532,-0.15,-0.1456,-0.1399,-0.1393,-0.1342,-0.1321,-0.1315,-0.1316,-0.1306,-0.1307,-0.1323,-0.129,-0.129,-0.129,-0.129,0,-0.2046,-0.2017,-0.1937,-0.1912,-0.1877,-0.1818,-0.1785,-0.1743,-0.1691,-0.1655,-0.1604,-0.1571,-0.1499,-0.1456,-0.1411,-0.1366,-0.1352,-0.1325,-0.1314,-0.1329,-0.1333,-0.1309,-0.1307,-0.1289,-0.1289,-0.1289,-0.1289,0,-0.2087,-0.2032,-0.1985,-0.1909,-0.189,-0.1867,-0.1801,-0.1773,-0.1729,-0.1684,-0.167,-0.16,-0.1547,-0.1486,-0.1413,-0.1383,-0.134,-0.1323,-0.1361,-0.1354,-0.135,-0.1351,-0.1351,-0.1347,-0.1318,-0.1318,-0.1318,0,-0.2096,-0.2073,-0.1995,-0.1969,-0.1935,-0.1893,-0.186,-0.18,-0.1768,-0.1698,-0.1678,-0.1622,-0.1574,-0.1491,-0.1432,-0.1375,-0.1356,-0.136,-0.1347,-0.1363,-0.1354,-0.1356,-0.1352,-0.1363,-0.1364,-0.1364,-0.1365,0,-0.2118,-0.2092,-0.2049,-0.1995,-0.1958,-0.1912,-0.1864,-0.1845,-0.1775,-0.174,-0.1687,-0.165,-0.1576,-0.152,-0.1455,-0.1414,-0.1377,-0.1369,-0.1364,-0.138,-0.1402,-0.1389,-0.1369,-0.1369,-0.1369,-0.1368,-0.1368,-0.1368,-0.2142,-0.2119,-0.2061,-0.2013,-0.1971,-0.1927,-0.1898,-0.185,-0.1805,-0.1742,-0.1708,-0.1655,-0.1594,-0.1504,-0.1464,-0.142,-0.1407,-0.1401,-0.1399,-0.1398,-0.1402,-0.1411,-0.1408,-0.1408,-0.1407,-0.1407,-0.1407,0,-0.216,-0.2121,-0.2078,-0.2013,-0.1975,-0.1946,-0.1891,-0.186,-0.1815,-0.1762,-0.1716,-0.1653,-0.1599,-0.1535,-0.1476,-0.1452,-0.1433,-0.1438,-0.1439,-0.1429,-0.1417,-0.1427,-0.1454,-0.1454,-0.1454,-0.1454,-0.1454,-0.1454,-0.2165,-0.2124,-0.2091,-0.2027,-0.1986,-0.1935,-0.1906,-0.1865,-0.1822,-0.1756,-0.1711,-0.1671,-0.1612,-0.1548,-0.1496,-0.1478,-0.1458,-0.1468,-0.1445,-0.1434,-0.143,-0.1427,-0.1435,-0.1464,-0.1464,-0.1461,-0.1461,-0.1461]},{"header":{"parameterUnit":"m.s-1","parameterCategory":1,"la1":30.2991,"la2":30.254,"lo1":-89.0895,"lo2":-89.0444,"dy":0.0017,"dx":0.0017,"nx":28,"ny":28,"refTime":"2024-03-05T09:00:00:Z","depth":0,"parameterNumber":3,"parameterNumberName":"V-component_of_WINDS"},"data":[0,0,0,0,0,0,0,0,0,0,0,0,0,0,0,0,0,0,0,0,0,0,0,0,0,0,0,0,0,0,0,0,0,0,0,0,0,0,0,0,0,0,0,0,0,0,0,0,0,0,0,0,0,0,0,0,0,0,-0.7234,-0.7235,0,-0.7288,-0.7288,-0.7289,-0.7306,-0.7305,-0.7305,-0.7305,-0.736,-0.7362,-0.7363,0,0,0,0,0,0,0,0,0,0,0,0,0,-0.7147,-0.7148,-0.7234,-0.7235,-0.7235,-0.7288,-0.7288,-0.7289,-0.7306,-0.7305,-0.7305,-0.7305,-0.7359,-0.7361,-0.7363,0,0,0,0,0,0,0,0,0,0,0,0,0,-0.7191,-0.7149,-0.7234,-0.725,-0.7252,-0.7288,-0.7289,-0.7289,-0.7306,-0.7305,-0.7305,-0.7305,-0.7359,-0.7361,-0.7364,-0.7387,0,0,-0.7372,-0.7373,0,0,0,0,0,0,0,0,-0.7189,-0.7194,-0.7247,-0.7249,-0.7251,-0.729,-0.7278,-0.7322,-0.7306,-0.7285,-0.7305,-0.7304,-0.7337,-0.7341,-0.7352,-0.739,-0.7392,-0.7372,-0.7373,-0.7374,-0.7375,0,0,0,0,0,0,0,-0.7185,-0.7192,-0.7255,-0.7248,-0.725,-0.7255,-0.7261,-0.7286,-0.7313,-0.7287,-0.7288,-0.7295,-0.7338,-0.735,-0.7354,-0.7393,-0.7372,-0.7374,-0.7376,-0.7377,-0.7454,-0.7454,0,0,0,0,0,0,-0.718,-0.7189,-0.7254,-0.7257,-0.7218,-0.7257,-0.7263,-0.7278,-0.7312,-0.7317,-0.7295,-0.7295,-0.7345,-0.7351,-0.7356,-0.7386,-0.7374,-0.7377,-0.7378,-0.7453,-0.7454,-0.7455,0,0,0,0,0,0,-0.7178,-0.7185,-0.7252,-0.7224,-0.7232,-0.7259,-0.7275,-0.7279,-0.7291,-0.7318,-0.7323,-0.7302,-0.7345,-0.7352,-0.738,-0.7388,-0.7378,-0.738,-0.7453,-0.7454,-0.7454,-0.7446,0,0,0,0,0,0,-0.7175,-0.7184,-0.7193,-0.7224,-0.7234,-0.7274,-0.7275,-0.728,-0.7295,-0.7296,-0.7326,-0.7331,-0.7346,-0.7376,-0.7382,-0.7391,-0.7382,-0.7452,-0.7453,-0.7454,-0.7446,-0.7446,-0.7447,0,0,0,0,0,-0.7172,-0.7189,-0.7194,-0.7201,-0.7246,-0.7275,-0.728,-0.7297,-0.7296,-0.7305,-0.7323,-0.733,-0.7386,-0.7378,-0.7386,-0.7396,-0.7452,-0.7453,-0.7454,-0.7445,-0.7446,-0.7447,0,0,0,0,0,0,-0.7159,-0.7193,-0.7199,-0.7226,-0.7247,-0.7277,-0.729,-0.7297,-0.732,-0.732,-0.7339,-0.7346,-0.7372,-0.7387,-0.7378,-0.7421,-0.7419,-0.7422,-0.741,-0.7411,-0.7412,-0.7407,-0.7384,0,0,0,0,0,-0.7159,-0.7179,-0.7209,-0.723,-0.724,-0.7263,-0.7276,-0.7287,-0.731,-0.7319,-0.7339,-0.7361,-0.7384,-0.7399,-0.7421,-0.7448,-0.7455,-0.7459,-0.746,-0.746,-0.7462,-0.7478,-0.748,-0.7458,-0.7458,-0.7458,0,0,-0.7159,-0.7181,-0.7193,-0.7228,-0.7245,-0.7266,-0.727,-0.7293,-0.7308,-0.7323,-0.735,-0.7366,-0.7392,-0.7419,-0.7432,-0.7432,-0.747,-0.7462,-0.7462,-0.7463,-0.7479,-0.7481,-0.7483,-0.7459,-0.7459,-0.7459,0,0,-0.7171,-0.719,-0.7209,-0.7227,-0.7254,-0.727,-0.7274,-0.7304,-0.7314,-0.7342,-0.7353,-0.7373,-0.7412,-0.743,-0.7444,-0.7464,-0.7471,-0.7471,-0.7474,-0.7489,-0.7491,-0.7493,-0.75,-0.7502,-0.7473,-0.7473,-0.7473,0,-0.7168,-0.72,-0.7218,-0.724,-0.7255,-0.727,-0.729,-0.7307,-0.734,-0.735,-0.7349,-0.7399,-0.7417,-0.7449,-0.7454,-0.7466,-0.7472,-0.7467,-0.7489,-0.7491,-0.7493,-0.75,-0.7502,-0.7473,-0.7473,-0.7473,-0.7473,0,-0.7196,-0.7218,-0.7231,-0.7262,-0.7279,-0.73,-0.7321,-0.7336,-0.7346,-0.7362,-0.739,-0.7413,-0.7441,-0.7449,-0.7459,-0.7483,-0.7482,-0.7485,-0.7484,-0.7494,-0.7501,-0.7504,-0.7472,-0.7472,-0.7472,-0.7472,0,0,-0.72,-0.7241,-0.7246,-0.726,-0.7292,-0.7309,-0.7331,-0.7358,-0.7371,-0.7394,-0.7412,-0.7445,-0.7449,-0.7465,-0.7477,-0.7491,-0.7505,-0.7492,-0.7493,-0.7493,-0.7533,-0.753,-0.7532,-0.751,-0.7511,-0.7511,-0.753,0,-0.7215,-0.7254,-0.7271,-0.7303,-0.7324,-0.7338,-0.7358,-0.7379,-0.7395,-0.7415,-0.7432,-0.7455,-0.7458,-0.7468,-0.7482,-0.75,-0.7513,-0.7499,-0.7528,-0.7529,-0.752,-0.7536,-0.7533,-0.7549,-0.7533,-0.7534,-0.7534,0,-0.7238,-0.7261,-0.7294,-0.7324,-0.7333,-0.735,-0.7376,-0.7396,-0.7421,-0.7431,-0.745,-0.7461,-0.7485,-0.7483,-0.7517,-0.7507,-0.752,-0.7531,-0.7532,-0.7535,-0.7531,-0.7538,-0.7555,-0.7557,-0.7538,-0.7538,-0.7538,0,-0.7237,-0.7276,-0.7301,-0.7313,-0.7348,-0.736,-0.7375,-0.74,-0.7415,-0.7439,-0.7449,-0.7475,-0.7489,-0.7509,-0.7527,-0.7524,-0.7559,-0.7558,-0.7568,-0.7568,-0.7574,-0.7573,-0.7592,-0.7584,-0.7584,-0.7584,-0.7584,0,-0.7252,-0.7272,-0.7301,-0.7317,-0.734,-0.736,-0.7382,-0.7398,-0.742,-0.744,-0.7454,-0.7472,-0.7496,-0.7517,-0.7532,-0.7557,-0.7564,-0.7573,-0.7576,-0.7571,-0.757,-0.7579,-0.7578,-0.7584,-0.7584,-0.7584,-0.7584,0,-0.7254,-0.7275,-0.7303,-0.7334,-0.7343,-0.7358,-0.7385,-0.7401,-0.7417,-0.7441,-0.7448,-0.7474,-0.75,-0.7521,-0.7554,-0.7564,-0.759,-0.7595,-0.7582,-0.7584,-0.7592,-0.7591,-0.7617,-0.7622,-0.761,-0.7611,-0.7611,0,-0.7262,-0.7278,-0.7311,-0.7324,-0.7339,-0.7361,-0.7377,-0.7398,-0.7414,-0.7444,-0.7457,-0.7483,-0.7505,-0.7545,-0.7567,-0.7593,-0.7598,-0.7606,-0.7602,-0.7596,-0.7598,-0.7596,-0.7598,-0.7606,-0.7606,-0.7606,-0.7606,0,-0.7274,-0.7283,-0.7305,-0.7331,-0.735,-0.7371,-0.7393,-0.7404,-0.7429,-0.7446,-0.7472,-0.7489,-0.7524,-0.755,-0.7578,-0.7594,-0.7604,-0.7607,-0.761,-0.7605,-0.7596,-0.7601,-0.7582,-0.7606,-0.7606,-0.7606,-0.7606,-0.7606,-0.7279,-0.7293,-0.7319,-0.7343,-0.7362,-0.7382,-0.7399,-0.7418,-0.744,-0.7469,-0.748,-0.7507,-0.7533,-0.7572,-0.7588,-0.761,-0.7611,-0.7616,-0.7617,-0.7618,-0.7617,-0.7594,-0.7615,-0.7615,-0.7615,-0.7615,-0.7615,0,-0.7291,-0.7308,-0.733,-0.7361,-0.738,-0.7388,-0.7413,-0.7428,-0.7452,-0.7475,-0.7496,-0.7527,-0.7553,-0.7577,-0.7604,-0.7617,-0.7622,-0.7623,-0.7622,-0.7626,-0.7615,-0.7609,-0.7618,-0.7618,-0.7618,-0.7618,-0.7618,-0.7618,-0.7299,-0.7325,-0.7337,-0.7373,-0.739,-0.7416,-0.743,-0.7449,-0.7467,-0.75,-0.7522,-0.7538,-0.7561,-0.759,-0.7614,-0.7621,-0.763,-0.763,-0.7638,-0.7627,-0.7626,-0.7626,-0.762,-0.7632,-0.7632,-0.7647,-0.7647,-0.7647]}]]